Regional Weather Roundup
Issued by NWS Grand Forks, ND

Home | Current Version | Previous Version | Text Only | Print | Product List | Glossary Off
Versions: 1 2 3 4 5 6 7 8 9 10 11 12 13 14 15 16 17 18 19 20 21 22 23 24 25 26 27 28 29 30 31 32 33 34 35 36 37 38 39 40 41 42 43 44 45 46 47 48 49 50

000
ASUS43 KFGF 312231
RWRFGF
PRAIRIE TO PINES  WEATHER ROUNDUP
NATIONAL WEATHER SERVICE EASTERN NORTH DAKOTA/GRAND FORKS ND
500 PM CDT MON AUG 31 2015

 **SATELLITE DATA USED TO AUGMENT SKY COVER AT AUTOMATED STATIONS**
 *****  WEATHER ACROSS EASTERN NORTH DAKOTA  *****

CITY           SKY/WX    TMP DP  RH WIND       PRES   REMARKS
GRAND FORKS    CLOUDY    81  57  43 W12       29.77S
GRAND FRKS AFB CLOUDY    78  59  51 W10       29.79S
GRAND FRKS NWS   N/A     79 N/A N/A W9          N/A
DEVILS LAKE    MOSUNNY   79  45  29 W18       29.81R
FARGO          CLOUDY    80  65  59 CALM      29.81R
WAHPETON ARPT  MOCLDY    79  63  57 NW9       29.83R
$$

 ***** WEATHER ACROSS CENTRAL AND WESTERN NORTH DAKOTA  *****

CITY           SKY/WX    TMP DP  RH WIND       PRES   REMARKS
BISMARCK       MOSUNNY   84  42  22 NW10      29.87S
MINOT          SUNNY     77  39  25 SW14      29.82S
JAMESTOWN      CLOUDY    78  54  43 NW5       29.85S
MINOT AFB      SUNNY     80  39  22 W16G25    29.80S
GARRISON         N/A     77  44  30 W16       29.87S
WILLISTON      SUNNY     78  33  19 W18G29    29.84F
DICKINSON      SUNNY     78  36  21 W13G24    29.89F
HETTINGER      SUNNY     80  38  22 MISG      29.92F
$$

 *****  OTHER AIRPORT OBSERVATIONS IN OUR AREA  *****

CITY           SKY/WX    TMP DP  RH WIND       PRES   REMARKS
WALHALLA       FAIR      81  45  28 MISG      29.76R
GRAFTON AIRPOR FAIR      81  55  41 W18       29.77S
VALLEY CITY AR FAIR      79  59  50 W9        29.85R
CANDO          FAIR      77  41  27 W20       29.81S
CAVALIER APRT  FAIR      81  46  30 W13G21    29.75S
GWINNER        FAIR      75  68  78 W5        29.86S
ROLLA          FAIR      75  41  29 W20G28    29.81S
 ***** THE ABOVE OBSERVATIONS ARE NON NWS ARE NOT QUALITY
       CONTROLLED AND MAY MIS-REPORT RAIN FOR SNOW...
$$

  *****  WEATHER ACROSS NORTHERN MINNESOTA  *****

CITY           SKY/WX    TMP DP  RH WIND       PRES   REMARKS
FLAG ISLAND    CLOUDY    75  63  64 SW3       29.74R
WARROAD        CLOUDY    75  66  73 SW5       29.77R
ROSEAU         CLOUDY    77  64  65 SW7       29.77R
HALLOCK        CLOUDY    81  59  47 SW9       29.75S
THF RVR FALLS  PTSUNNY  N/A N/A N/A SW6       29.79S
BAUDETTE       PTSUNNY   73  65  75 SW7       29.78R
WASKISH        CLOUDY    72  66  83 W10G18    29.81R
CROOKSTON      CLOUDY    79  61  53 W7        29.80R
STEPHEN NDAWN    N/A     79  61  53 W9          N/A
GREENBUSH NDAW   N/A     79  63  57 SW7         N/A
$$
  *****  WEATHER ACROSS CENTRAL AND WEST MINNESOTA  *****

CITY           SKY/WX    TMP DP  RH WIND       PRES   REMARKS
FOSSTON        MOSUNNY   75  66  73 CALM      29.82S
BEMIDJI        CLOUDY    78  65  63 SW9       29.81R
PARK RAPIDS    PTSUNNY   83  65  54 W12       29.82R
ELBOW LAKE     FAIR      83  66  56 W8        29.83R HAZE
WADENA         PTSUNNY   82  66  57 SW10      29.82S
DETROIT LAKES  PTSUNNY   79  64  61 NW10      29.85R
MOORHEAD       CLOUDY    79  66  65 NE3       29.82R
FERGUS FALLS   MOSUNNY   79  64  61 W8        29.81R
MORRIS MN      MOSUNNY   88  66  48 SW9       29.82S HX  90
STAPLES        MOSUNNY   82  66  57 SW14      29.83S
$$
  *****  WEATHER ELSEWHERE ACROSS MINNESOTA  *****

CITY           SKY/WX    TMP DP  RH WIND       PRES   REMARKS
DULUTH         MOSUNNY   80  67  64 SW12      29.85S
INTRNTL FALLS  MOSUNNY   80  64  58 W13G23    29.76R
ELY            SUNNY     81  63  54 S14       29.81S
CLOQUET        MOSUNNY   81  66  61 S10G21    29.86R
WHEATON        MOSUNNY   79  64  61 NW8       29.85R
BRAINERD       SUNNY     83  67  58 S18G25    29.84R
HIBBING        MOSUNNY   83  63  50 SW7G18    29.82R
ALEXANDRIA     MOSUNNY   83  67  58 SW15      29.85S
SAINT CLOUD    SUNNY     83  69  62 S16G23    29.86R
MINNEAPOLIS    MOSUNNY   85  68  56 S15G28    29.88F
$$

  *****  WEATHER ACROSS SOUTH DAKOTA  *****

CITY           SKY/WX    TMP DP  RH WIND       PRES   REMARKS
SIOUX FALLS    MOSUNNY   82  70  66 S14       29.87R
BROOKINGS      MOSUNNY   84  70  61 SW9       29.89S
WATERTOWN      SUNNY     84  66  54 SW9       29.86R
HURON          MOSUNNY   80  66  62 N16       29.85S
SISSETON         N/A     83  66  56 NW7       29.83R
ABERDEEN       CLOUDY    77  64  64 NE6       29.86F
MITCHELL       SUNNY     85  68  56 NW15G21   29.85R
PIERRE         PTSUNNY   77  61  57 CALM      29.90S
MOBRIDGE       CLOUDY    82  59  45 CALM      29.87F
RAPID CITY     PTSUNNY   75  57  53 SE13      29.97F
$$

  *****  SOME WEATHER IN NEARBY STATES *****

CITY           SKY/WX    TMP DP  RH WIND       PRES   REMARKS
GLASGOW MT     PTSUNNY   72  37  28 SW12      29.84F
GREAT FALLS MT SUNNY     76  33  21 SW25      29.88F
CHEYENNE WY    LGT RAIN  83  41  22 S8        30.12F
SCOTTSBLUFF NE PTSUNNY   87  51  28 E8        29.98F
OMAHA NE       MOSUNNY   86  66  51 S13       29.91F
DES MOINES IA  MOSUNNY   87  70  56 S9        29.92F HX  92
DAVENPORT IA   MOSUNNY   85  72  65 S9        29.99S HX  91
CHICAGO IL     MOSUNNY   85  66  53 SW7       30.01S
EAU CLAIRE WI  SUNNY     82  70  66 S12       29.93F
LA CROSSE WI   MOSUNNY   84  70  62 S9        29.95F
$$

  *****  SOME NATIONAL WEATHER *****

CITY           SKY/WX    TMP DP  RH WIND       PRES   REMARKS
LA GUARDIA NY  MOSUNNY   90  63  40 W15       29.94R HX  91
RALEIGH NC     PTSUNNY   77  70  79 CALM      30.07F
ATLANTA GA     PTSUNNY   82  66  58 CALM      30.09S
NEW ORLEANS LA PTSUNNY   92  63  38 NE7       30.00F HX  93
OKLAHOMA CITY  MOSUNNY   93  60  33 S16G24    29.95F HX  93
ALBUQUERQUE NM PTSUNNY   87  42  20 SW7       30.08F THUNDER
SALT LAKE CITY MOSUNNY   86  40  19 N13       30.00F
LOS ANGELES CA MOSUNNY   75  63  66 W10       29.89F
BOISE ID       SUNNY     81  40  23 CALM      29.97F
SEATTLE WA     CLOUDY    64  55  72 S16G23    29.97S
$$

*** WEATHER ACROSS MANITOBA...SASKATCHEWAN AND ONTARIO ***
                ***ONTARIO***

CITY           SKY/WX    TMP DP  RH WIND       PRES   REMARKS
GERALDTON      PTSUNNY   73  63  68 S12G23    29.79F
THUNDER BAY    PTSUNNY   79  66  65 SW8       29.79S
SIOUX LOOKOUT  CLOUDY    75  64  69 W9G17     29.71R
TORONTO        MOSUNNY   82  64  54 W7        29.99F
BIG TROUT LK   LGT RAIN  66  64  94 S10       29.52F
PICKLE LAKE    CLOUDY    77  63  61 SW15G25   29.63R
DRYDEN         CLOUDY    72  63  73 W20G28    29.74R
KENORA         PTSUNNY   72  66  83 S7        29.75R
$$
                *** MANITOBA***

CITY           SKY/WX    TMP DP  RH WIND       PRES   REMARKS
BRANDON        MOSUNNY   77  46  33 W20G25    29.74R
DAUPHIN        SUNNY     77  48  36 W18G31    29.64R
ISLAND LAKE    LGT RAIN  68  63  83 S7        29.54R
PILOT MOUND      N/A     77  41  27 W15G24      N/A
THE PAS        MOSUNNY   75  55  50 W12       29.51R
THOMPSON       DRIZZLE   57  55  94 E3        29.51R FOG
WINNIPEG       MOSUNNY   79  50  36 SW16G26   29.71R
LYNN LAKE      CLOUDY    64  57  77 MISG      29.48S
CHURCHILL      CLOUDY    48  45  87 SE20      29.59F
GILLAM         DRIZZLE   50  50 100 N7        29.51F FOG
$$
                ***SASKATCHEWAN***

CITY           SKY/WX    TMP DP  RH WIND       PRES   REMARKS
ESTEVAN        PTSUNNY   75  39  27 W18G30    29.79S
KINDERSLEY     PTSUNNY   73  36  25 SW15G23   29.66S
LLOYDMINSTER   PTSUNNY   72  41  33 SW7       29.61R
PRINCE ALBERT  PTSUNNY   77  46  33 W14       29.56R
REGINA         PTSUNNY   73  45  35 W14G23    29.72S
YORKTON        SUNNY     73  46  38 W18G26    29.67R
N. BATTLEFORD  SUNNY     77  36  22 W10G18    29.62S
LA RONGE       PTSUNNY   77  54  44 NW13G18   29.49R
SASKATOON      PTSUNNY   77  36  22 W10G18    29.64S
SWIFT CURRENT  SUNNY     75  36  23 W25G35    29.72S
$$
NOTE: THESE ARE AUTOMATED STATIONS WITH LIMITED QUALITY CONTROL
      "FAIR" INDICATES FEW OR NO CLOUDS BELOW 12,000 FEET WITH NO
      SIGNIFICANT WEATHER AND/OR OBSTRUCTIONS TO VISIBILITY.
      SKY/WX - SKY CONDITION AND SIGNIFICANT WEATHER.
      TMP - AIR TEMPERATURE.    DP   - DEWPOINT TEMPERATURE.
      RH  - RELATIVE HUMIDITY.  PRES - PRESSURE.
      HX  - HEAT INDEX.         WCI  - WIND CHILL INDEX.
$



USA.gov is the U.S. government's official web portal to all federal, state and local government web resources and services.